Weather History for LIVP - December, 2012

Change the Weather History Date:

Wednesday, December 12, 2012

  Actual Average Record
Temperature  
Mean Temperature 8 °F -  
Max Temperature 10 °F 29 °F - ()
Min Temperature 6 °F 20 °F - ()
Degree Days  
Heating Degree Days 57    
Moisture  
Dew Point -8 °F    
Average Humidity 45    
Maximum Humidity 61    
Minimum Humidity 20    
Precipitation  
Precipitation 0.00 in 0.04 in - ()
Sea Level Pressure  
Sea Level Pressure 29.78 in    
Wind  
Wind Speed 12 mph ()    
Max Wind Speed 20 mph    
Max Gust Speed -    
T = Trace of Precipitation, MM = Missing Value Source: Averaged Metar Reports

Daily Weather History Graph

Daily Weather History Graph

Search for Another Location

Airport or City:

Trip Planner

Search our weather history database for the weather conditions in past years. The results will help you decide how hot, cold, wet, or windy it might be!

Date:

Astronomy

Dec. 12, 2012 Rise Set
Actual Time 7:49 AM CET 4:30 PM CET
Civil Twilight 7:14 AM CET 5:04 PM CET
Nautical Twilight 6:36 AM CET 5:42 PM CET
Astronomical Twilight 6:00 AM CET 6:19 PM CET
Moon 6:33 AM CET (12/12) 3:51 PM CET (12/12)
Length of Visible Light 9h 49m
Length of Day
8h 40m
Waning Crescent, 1% of the Moon is Illuminated
Dec 12
Waning Crescent
Dec 13
New
Dec 20
First Quarter
Dec 28
Full
Jan 5
Last Quarter

Hourly Weather History & Observations

Time (CET) Temp. Windchill Dew Point Humidity Pressure Visibility Wind Dir Wind Speed Gust Speed Precip Events Conditions
12:55 AM 6.8 °F -11.8 °F -4.0 °F 61% 29.74 in - North 17.3 mph - N/A   Clear
1:00 AM 7 °F - -4 °F 46%  in 31 mi North 17.3 mph - -  
1:55 AM 6.8 °F -12.4 °F -4.0 °F 61% 29.74 in - North 18.4 mph - N/A   Clear
2:55 AM 6.8 °F -12.4 °F -4.0 °F 61% 29.74 in - North 18.4 mph - N/A   Clear
3:55 AM 6.8 °F -11.3 °F -5.8 °F 56% 29.77 in - North 16.1 mph - N/A   Clear
4:00 AM 7 °F - -5 °F 42%  in 31 mi North 16.1 mph - -   Clear
4:55 AM 6.8 °F -11.3 °F -4.0 °F 61% 29.77 in - North 16.1 mph - N/A   Clear
5:55 AM 6.8 °F -12.9 °F -4.0 °F 61% 29.77 in - North 19.6 mph - N/A   Clear
6:55 AM 6.8 °F -12.4 °F -5.8 °F 56% 29.74 in - North 18.4 mph - N/A   Clear
7:00 AM 6 °F - -5 °F 45%  in 31 mi North 18.4 mph - -   Clear
7:55 AM 6.8 °F -10.0 °F -5.8 °F 56% 29.74 in - North 13.8 mph - N/A   Clear
8:55 AM 6.8 °F -9.3 °F -7.6 °F 52% 29.74 in - North 12.7 mph - N/A   Clear
9:55 AM 6.8 °F -6.9 °F -5.8 °F 56% 29.77 in - North 9.2 mph - N/A   Clear
10:00 AM 7 °F - -6 °F 39%  in 44 mi North 9.2 mph - -  
10:55 AM 6.8 °F -3.5 °F -5.8 °F 56% 29.80 in - North 5.8 mph - N/A   Clear
11:55 AM 8.6 °F -1.3 °F -7.6 °F 48% 29.80 in - North 5.8 mph - N/A   Clear
12:55 PM 8.6 °F -1.3 °F -5.8 °F 52% 29.80 in - NNW 5.8 mph - N/A   Clear
1:00 PM 8 °F - -7 °F 35%  in 44 mi NNW 5.8 mph - -  
1:55 PM 10.4 °F 4.0 °F -4.0 °F 52% 29.80 in - ESE 3.5 mph - N/A   Clear
2:55 PM 10.4 °F 4.0 °F -4.0 °F 52% 29.80 in - East 3.5 mph - N/A   Clear
3:55 PM 10.4 °F -2.4 °F -11.2 °F 37% 29.80 in - ESE 9.2 mph - N/A   Clear
4:00 PM 11 °F - -11 °F 21%  in 44 mi ESE 9.2 mph - -  
4:55 PM 10.4 °F 2.2 °F -13.0 °F 34% 29.80 in - East 4.6 mph - N/A   Clear
5:55 PM 10.4 °F 4.0 °F -9.4 °F 41% 29.80 in - NNE 3.5 mph - N/A   Clear
6:55 PM 10.4 °F 4.0 °F -11.2 °F 37% 29.80 in - WSW 3.5 mph - N/A   Clear
7:00 PM 10 °F - -10 °F 23%  in 31 mi WSW 3.5 mph - -  
7:55 PM 10.4 °F 0.8 °F -11.2 °F 37% 29.80 in - SW 5.8 mph - N/A   Clear
8:55 PM 10.4 °F -1.5 °F -13.0 °F 34% 29.80 in - SSW 8.1 mph - N/A   Clear
9:55 PM 10.4 °F -4.1 °F -13.0 °F 34% 29.80 in - SSW 11.5 mph - N/A   Clear
10:00 PM 10 °F - -12 °F 20%  in 31 mi SSW 11.5 mph - -  
10:55 PM 10.4 °F -6.0 °F -11.2 °F 37% 29.80 in - SW 15.0 mph - N/A   Clear
11:55 PM 10.4 °F -5.4 °F -9.4 °F 41% 29.80 in - SSW 13.8 mph - N/A   Clear